Time,TemperatureF,DewpointF,PressureIn,WindDirection,WindDirectionDegrees,WindSpeedMPH,WindSpeedGustMPH,Humidity,HourlyPrecipIn,Conditions,Clouds,dailyrainin,SoftwareType,DateUTC
2013-10-31 00:03:00,61.6,57.0,30.21,SSE,159,0.0,0.0,84,0.00,,,0.00,weatherlink.com 1.10,2013-10-31 04:03:00,
2013-10-31 00:18:00,61.4,57.0,30.21,SSE,159,0.0,0.0,84,0.00,,,0.00,weatherlink.com 1.10,2013-10-31 04:18:00,
2013-10-31 00:33:00,60.9,56.0,30.21,SSE,159,0.0,0.0,85,0.00,,,0.00,weatherlink.com 1.10,2013-10-31 04:33:00,
2013-10-31 00:48:00,60.5,56.0,30.21,SSE,159,0.0,0.0,85,0.00,,,0.00,weatherlink.com 1.10,2013-10-31 04:48:00,
2013-10-31 01:03:00,60.4,56.0,30.21,SSE,159,0.0,0.0,84,0.00,,,0.00,weatherlink.com 1.10,2013-10-31 05:03:00,
2013-10-31 01:18:00,60.4,56.0,30.20,SSE,159,0.0,0.0,84,0.00,,,0.00,weatherlink.com 1.10,2013-10-31 05:18:00,
2013-10-31 01:33:00,60.4,56.0,30.20,SSE,159,0.0,1.0,84,0.00,,,0.00,weatherlink.com 1.10,2013-10-31 05:33:00,
2013-10-31 01:48:00,60.0,56.0,30.19,SSE,159,0.0,0.0,85,0.00,,,0.00,weatherlink.com 1.10,2013-10-31 05:48:00,
2013-10-31 02:03:00,59.9,55.0,30.19,SSE,159,0.0,0.0,84,0.00,,,0.00,weatherlink.com 1.10,2013-10-31 06:03:00,
2013-10-31 02:18:00,59.8,55.0,30.19,SSE,159,0.0,0.0,84,0.00,,,0.00,weatherlink.com 1.10,2013-10-31 06:18:00,
2013-10-31 02:33:00,59.7,55.0,30.18,SSE,159,0.0,0.0,84,0.00,,,0.00,weatherlink.com 1.10,2013-10-31 06:33:00,
2013-10-31 02:48:00,60.0,55.0,30.18,SSE,159,0.0,0.0,84,0.00,,,0.00,weatherlink.com 1.10,2013-10-31 06:48:00,
2013-10-31 03:03:00,59.7,55.0,30.18,SSE,159,0.0,0.0,84,0.00,,,0.00,weatherlink.com 1.10,2013-10-31 07:03:00,
2013-10-31 03:18:00,59.5,55.0,30.18,SSE,159,0.0,0.0,84,0.00,,,0.00,weatherlink.com 1.10,2013-10-31 07:18:00,
2013-10-31 03:33:00,59.6,55.0,30.18,SSE,159,0.0,0.0,84,0.00,,,0.00,weatherlink.com 1.10,2013-10-31 07:33:00,
2013-10-31 03:48:00,59.3,55.0,30.18,SSE,159,0.0,0.0,84,0.00,,,0.00,weatherlink.com 1.10,2013-10-31 07:48:00,
2013-10-31 04:18:00,58.9,54.0,30.18,SSE,159,0.0,0.0,84,0.00,,,0.00,weatherlink.com 1.10,2013-10-31 08:18:00,
2013-10-31 04:33:00,58.7,54.0,30.18,SSE,159,0.0,0.0,84,0.00,,,0.00,weatherlink.com 1.10,2013-10-31 08:33:00,
2013-10-31 04:48:00,58.7,54.0,30.18,SSE,159,0.0,0.0,84,0.00,,,0.00,weatherlink.com 1.10,2013-10-31 08:48:00,
2013-10-31 05:03:00,58.6,54.0,30.18,SSE,159,0.0,0.0,84,0.00,,,0.00,weatherlink.com 1.10,2013-10-31 09:03:00,
2013-10-31 05:18:00,58.7,54.0,30.18,SSE,159,0.0,0.0,84,0.00,,,0.00,weatherlink.com 1.10,2013-10-31 09:18:00,
2013-10-31 05:33:00,59.0,54.0,30.18,SSE,159,0.0,1.0,84,0.00,,,0.00,weatherlink.com 1.10,2013-10-31 09:33:00,
2013-10-31 05:48:00,59.3,55.0,30.18,SSE,159,0.0,1.0,84,0.00,,,0.00,weatherlink.com 1.10,2013-10-31 09:48:00,
2013-10-31 06:03:00,58.9,54.0,30.18,SSE,159,0.0,2.0,84,0.00,,,0.00,weatherlink.com 1.10,2013-10-31 10:03:00,
2013-10-31 06:18:00,58.7,54.0,30.18,SSE,159,0.0,0.0,84,0.00,,,0.00,weatherlink.com 1.10,2013-10-31 10:18:00,
2013-10-31 06:33:00,58.7,54.0,30.18,SSE,159,0.0,0.0,84,0.00,,,0.00,weatherlink.com 1.10,2013-10-31 10:33:00,
2013-10-31 06:48:00,58.7,54.0,30.18,SSE,159,0.0,0.0,84,0.00,,,0.00,weatherlink.com 1.10,2013-10-31 10:48:00,
2013-10-31 07:03:00,58.7,54.0,30.17,SSE,159,0.0,0.0,84,0.00,,,0.00,weatherlink.com 1.10,2013-10-31 11:03:00,
2013-10-31 07:18:00,59.2,54.0,30.16,SSE,159,0.0,0.0,84,0.00,,,0.00,weatherlink.com 1.10,2013-10-31 11:18:00,
2013-10-31 07:33:00,59.4,54.0,30.16,SSE,159,0.0,0.0,83,0.00,,,0.00,weatherlink.com 1.10,2013-10-31 11:33:00,
2013-10-31 07:48:00,59.2,54.0,30.16,SSE,159,0.0,0.0,84,0.00,,,0.00,weatherlink.com 1.10,2013-10-31 11:48:00,
2013-10-31 08:03:00,59.5,54.0,30.18,SSE,159,0.0,0.0,83,0.00,,,0.00,weatherlink.com 1.10,2013-10-31 12:03:00,
2013-10-31 08:18:00,60.0,55.0,30.18,SSE,159,0.0,0.0,83,0.00,,,0.00,weatherlink.com 1.10,2013-10-31 12:18:00,
2013-10-31 08:33:00,61.3,56.0,30.18,SSE,159,0.0,0.0,83,0.00,,,0.00,weatherlink.com 1.10,2013-10-31 12:33:00,
2013-10-31 08:48:00,62.5,57.0,30.18,SSE,159,0.0,1.0,83,0.00,,,0.00,weatherlink.com 1.10,2013-10-31 12:48:00,
2013-10-31 09:03:00,64.3,59.0,30.18,SSE,159,0.0,1.0,83,0.00,,,0.00,weatherlink.com 1.10,2013-10-31 13:03:00,
2013-10-31 09:18:00,65.4,60.0,30.19,SSE,159,0.0,0.0,83,0.00,,,0.00,weatherlink.com 1.10,2013-10-31 13:18:00,
2013-10-31 09:33:00,65.9,61.0,30.19,SSE,159,0.0,2.0,83,0.00,,,0.00,weatherlink.com 1.10,2013-10-31 13:33:00,
2013-10-31 09:48:00,66.9,62.0,30.18,SSE,150,1.0,3.0,83,0.00,,,0.00,weatherlink.com 1.10,2013-10-31 13:48:00,
2013-10-31 10:03:00,67.6,62.0,30.17,ESE,109,0.0,3.0,83,0.00,,,0.00,weatherlink.com 1.10,2013-10-31 14:03:00,
2013-10-31 10:18:00,68.6,63.0,30.16,SE,126,3.0,9.0,82,0.00,,,0.00,weatherlink.com 1.10,2013-10-31 14:18:00,
2013-10-31 10:33:00,69.0,63.0,30.16,SSE,167,6.0,9.0,82,0.00,,,0.00,weatherlink.com 1.10,2013-10-31 14:33:00,
2013-10-31 10:48:00,69.5,64.0,30.16,SE,144,4.0,12.0,82,0.00,,,0.00,weatherlink.com 1.10,2013-10-31 14:48:00,
2013-10-31 11:04:00,70.1,64.0,30.16,SE,133,4.0,13.0,82,0.00,,,0.00,weatherlink.com 1.10,2013-10-31 15:04:00,
2013-10-31 11:19:00,70.5,65.0,30.16,SSE,150,4.0,11.0,82,0.00,,,0.00,weatherlink.com 1.10,2013-10-31 15:19:00,
2013-10-31 11:34:00,70.8,65.0,30.15,SSE,158,2.0,13.0,82,0.00,,,0.00,weatherlink.com 1.10,2013-10-31 15:34:00,
2013-10-31 11:49:00,71.6,66.0,30.15,SW,215,3.0,11.0,83,0.00,,,0.00,weatherlink.com 1.10,2013-10-31 15:49:00,
2013-10-31 12:04:00,71.8,67.0,30.15,SE,138,3.0,8.0,84,0.00,,,0.00,weatherlink.com 1.10,2013-10-31 16:04:00,
2013-10-31 12:19:00,72.9,68.0,30.14,ESE,103,4.0,10.0,84,0.00,,,0.00,weatherlink.com 1.10,2013-10-31 16:19:00,
2013-10-31 12:34:00,73.0,68.0,30.13,SSE,160,4.0,10.0,84,0.00,,,0.00,weatherlink.com 1.10,2013-10-31 16:34:00,
2013-10-31 12:49:00,74.0,69.0,30.12,SSW,209,4.0,10.0,84,0.00,,,0.00,weatherlink.com 1.10,2013-10-31 16:49:00,
2013-10-31 13:19:00,74.9,69.0,30.10,South,180,0.0,12.0,83,0.00,,,0.00,weatherlink.com 1.10,2013-10-31 17:19:00,
2013-10-31 13:34:00,75.4,70.0,30.09,South,183,7.0,9.0,83,0.00,,,0.00,weatherlink.com 1.10,2013-10-31 17:34:00,
2013-10-31 13:49:00,76.2,70.0,30.09,South,182,6.0,11.0,82,0.00,,,0.00,weatherlink.com 1.10,2013-10-31 17:49:00,
2013-10-31 14:04:00,76.6,70.0,30.09,SW,215,0.0,8.0,81,0.00,,,0.00,weatherlink.com 1.10,2013-10-31 18:04:00,
2013-10-31 14:19:00,76.3,70.0,30.09,SW,232,5.0,8.0,82,0.00,,,0.00,weatherlink.com 1.10,2013-10-31 18:19:00,
2013-10-31 14:34:00,76.1,70.0,30.08,SW,234,0.0,9.0,82,0.00,,,0.00,weatherlink.com 1.10,2013-10-31 18:34:00,
2013-10-31 14:49:00,75.3,70.0,30.08,South,175,5.0,9.0,82,0.00,,,0.00,weatherlink.com 1.10,2013-10-31 18:49:00,
2013-10-31 15:04:00,74.8,69.0,30.07,SSW,198,2.0,11.0,83,0.00,,,0.00,weatherlink.com 1.10,2013-10-31 19:04:00,
2013-10-31 15:19:00,74.4,69.0,30.07,South,185,4.0,12.0,83,0.00,,,0.00,weatherlink.com 1.10,2013-10-31 19:19:00,
2013-10-31 15:34:00,74.2,68.0,30.07,South,181,2.0,13.0,82,0.00,,,0.00,weatherlink.com 1.10,2013-10-31 19:34:00,
2013-10-31 15:49:00,73.8,68.0,30.07,South,173,5.0,15.0,83,0.00,,,0.00,weatherlink.com 1.10,2013-10-31 19:49:00,
2013-10-31 16:04:00,73.0,68.0,30.07,SSE,154,7.0,10.0,83,0.00,,,0.00,weatherlink.com 1.10,2013-10-31 20:04:00,
2013-10-31 16:19:00,72.9,68.0,30.07,SSW,193,0.0,10.0,84,0.00,,,0.00,weatherlink.com 1.10,2013-10-31 20:19:00,
2013-10-31 16:34:00,72.6,68.0,30.07,ESE,116,4.0,11.0,84,0.00,,,0.00,weatherlink.com 1.10,2013-10-31 20:34:00,
2013-10-31 16:49:00,72.4,67.0,30.07,SSE,164,2.0,10.0,84,0.00,,,0.00,weatherlink.com 1.10,2013-10-31 20:49:00,
2013-10-31 17:04:00,72.3,67.0,30.07,South,188,5.0,10.0,84,0.00,,,0.00,weatherlink.com 1.10,2013-10-31 21:04:00,
2013-10-31 17:19:00,72.1,67.0,30.07,SSW,198,4.0,13.0,84,0.00,,,0.00,weatherlink.com 1.10,2013-10-31 21:19:00,
2013-10-31 17:34:00,71.8,67.0,30.06,SSW,196,3.0,12.0,85,0.00,,,0.00,weatherlink.com 1.10,2013-10-31 21:34:00,
2013-10-31 17:49:00,71.6,67.0,30.05,South,189,2.0,8.0,85,0.00,,,0.00,weatherlink.com 1.10,2013-10-31 21:49:00,
2013-10-31 18:04:00,71.3,67.0,30.06,SSW,198,0.0,7.0,85,0.00,,,0.00,weatherlink.com 1.10,2013-10-31 22:04:00,
2013-10-31 18:19:00,71.0,66.0,30.06,SSW,199,0.0,6.0,85,0.00,,,0.00,weatherlink.com 1.10,2013-10-31 22:19:00,
2013-10-31 18:34:00,70.6,66.0,30.05,SSW,203,0.0,3.0,85,0.00,,,0.00,weatherlink.com 1.10,2013-10-31 22:34:00,
2013-10-31 18:49:00,70.2,66.0,30.05,SSW,202,0.0,4.0,85,0.00,,,0.00,weatherlink.com 1.10,2013-10-31 22:49:00,
2013-10-31 19:04:00,69.8,65.0,30.05,SSW,199,0.0,2.0,85,0.00,,,0.00,weatherlink.com 1.10,2013-10-31 23:04:00,
2013-10-31 19:19:00,69.5,65.0,30.05,SSW,199,0.0,3.0,85,0.00,,,0.00,weatherlink.com 1.10,2013-10-31 23:19:00,
2013-10-31 19:34:00,69.4,65.0,30.05,SSW,199,0.0,3.0,85,0.00,,,0.00,weatherlink.com 1.10,2013-10-31 23:34:00,
2013-10-31 19:49:00,69.5,65.0,30.04,SSW,199,0.0,2.0,84,0.00,,,0.00,weatherlink.com 1.10,2013-10-31 23:49:00,
2013-10-31 20:04:00,69.9,65.0,30.04,SSW,200,0.0,4.0,84,0.00,,,0.00,weatherlink.com 1.10,2013-11-01 00:04:00,
2013-10-31 20:19:00,70.2,65.0,30.04,South,182,0.0,4.0,84,0.00,,,0.00,weatherlink.com 1.10,2013-11-01 00:19:00,
2013-10-31 20:34:00,70.4,65.0,30.04,South,186,3.0,5.0,84,0.00,,,0.00,weatherlink.com 1.10,2013-11-01 00:34:00,
2013-10-31 20:49:00,70.3,65.0,30.03,South,182,2.0,5.0,84,0.00,,,0.00,weatherlink.com 1.10,2013-11-01 00:49:00,
2013-10-31 21:04:00,70.4,65.0,30.03,SSW,198,3.0,7.0,84,0.00,,,0.00,weatherlink.com 1.10,2013-11-01 01:04:00,
2013-10-31 21:19:00,70.6,66.0,30.03,SSW,196,5.0,8.0,84,0.00,,,0.00,weatherlink.com 1.10,2013-11-01 01:19:00,
2013-10-31 21:34:00,70.9,66.0,30.03,SSW,198,1.0,9.0,85,0.00,,,0.00,weatherlink.com 1.10,2013-11-01 01:34:00,
2013-10-31 21:49:00,71.2,67.0,30.02,South,173,4.0,7.0,85,0.00,,,0.00,weatherlink.com 1.10,2013-11-01 01:49:00,
2013-10-31 22:04:00,71.2,67.0,30.03,South,190,0.0,9.0,85,0.00,,,0.00,weatherlink.com 1.10,2013-11-01 02:04:00,
2013-10-31 22:19:00,71.2,67.0,30.02,SSW,206,7.0,7.0,85,0.00,,,0.00,weatherlink.com 1.10,2013-11-01 02:19:00,
2013-10-31 22:34:00,71.4,67.0,30.02,SE,136,2.0,9.0,85,0.00,,,0.00,weatherlink.com 1.10,2013-11-01 02:34:00,
2013-10-31 22:49:00,71.4,67.0,30.02,SSW,197,0.0,9.0,85,0.00,,,0.00,weatherlink.com 1.10,2013-11-01 02:49:00,
2013-10-31 23:04:00,71.4,67.0,30.01,South,186,5.0,10.0,85,0.00,,,0.00,weatherlink.com 1.10,2013-11-01 03:04:00,
2013-10-31 23:19:00,71.4,67.0,30.01,SE,132,5.0,8.0,85,0.00,,,0.00,weatherlink.com 1.10,2013-11-01 03:19:00,
2013-10-31 23:34:00,71.3,67.0,30.01,SSW,213,6.0,9.0,85,0.00,,,0.00,weatherlink.com 1.10,2013-11-01 03:34:00,
2013-10-31 23:49:00,71.1,66.0,30.01,SSW,203,3.0,7.0,85,0.00,,,0.00,weatherlink.com 1.10,2013-11-01 03:49:00,